Terug naar catalogus

CZ-6A DEB

ActiefSSO
NORAD 54293·DEBRIS·🇨🇳 China

Gelanceerd Nov 11, 2022 vanaf Taiyuan Satellite Launch Center

Loading…

Volgende Passages (komende 24 uur)

TLE

VersSource: Space-Track

Epoch: Sep 14, 2026, 21:10 UTC

1 54293U 22151AL  26257.88254570  .00000287  00000-0  14227-3 0  9991
2 54293  98.7515 282.4522 0039058 226.9617 132.8289 14.24350568198990

Volg CZ-6A DEB in realtime met AllMySat

Download on the App Store